Timeline UpdatesTrip UpdatesNews PostsPvt PostsTravel TipsAdmin PostsConv PostsFollowed PostsChat RequestsBlog PostsPNR Posts

Disclaimer
Search
 
 
Tue Sep 2, 2014 09:53:26 ISTHomeTrainsΣChainsAtlasPNRForumGalleryNewsFAQTripsMembersLoginFeedback
No Recent News for this Train
Other Trains in the News **new
Latest...
⇐ Return Journey: Train# 18236

18235/Bhopal Bilaspur Express

Time-Table HAS CHANGED.
Today (12:28AM)
Change Departure Station:
Change Arrival Station:
Post a Train Travel TipPost a Train Travel Tip **new
Post a Comment/Question/Picture/VideoPost a Comment/Question/Picture/Video
Pantry/Catering
???
RSA - Rake Sharing
Rake/Coach Composition
.LOCO- GEN GEN GEN GEN FC1 S1 S2 S3 GEN GS GEN SLR SL(slip).; Entry# 311744.; Author: Shubham.
Loco
Loco In-Charge :- BIA WAM-4
News    PNR    Forum    Time-Table    Availability    Fare Chart    Map    Arr/Dep History    Trips    Gallery    ΣChains    X/O    Timeline    
Travel Time: 1h 50m    6 halts    Distance: 113 km    Avg Speed: 61 km/hr
Type: Mail/Express
Zone: SECR/South East Central
Departs @ 08:00
Platform# 5
SMTWTFS
Bhopal Junction/BPL 
Arrives @ 09:50
Platform# ???
SMTWTFS
Kalhar/KAH 

6 halts. 17 intermediate Stations between Bhopal Junction and Kalhar

Show ALL intermediate Stations  Show Old Time-Table

#CodeStation NameX/OArrivesAvgDepartsAvgHaltPFDay#KmSpeedElevZoneAddress
1BPL»Bhopal Junction (6)»  -08:00-510.079497mWCRBhopal, Madhya Pradesh
2DWGDewanGanj (3)X  08:21-08:23-2m1127.662 WCRRaisen, Madhya Pradesh
3SMTSalamatpur (3)X  08:32-08:34-2m--136.849 WCRRaisen, Madhya Pradesh
4SCISanchi (2)X  08:43-08:45-2m2144.151428mWCRRaisen, Madhya Pradesh
5BHSVidisha (3)O  08:56-08:58-2m1153.584 WCRVidisha, Madhya Pradesh
6GLGGulabhGanj (3)X  09:13-09:15-2m1174.569 WCRVidisha, Madhya Pradesh
7BAQGanj Basoda (4)  09:31-09:33-2m1192.869 WCRVidisha, Madhya Pradesh
8KAH•Kalhar (3)•  09:50-09:52-2m--1112.553409mWCRSagar, Madhya Pradesh
9MABAMandi Bamora (3)X  10:02-10:04-2m11121.329413mWCRState Highway 14, Madhya Pradesh
10BINABina Junction (4)  10:40-10:50-10m31138.625414mWCRJn Pt - KATNI/GUNA/ BPL/JHS, Madhya Pradesh
11BJQBaghora (2)  11:12 11:14-11:14 11:16-2m21148.671420mWCRSagar, Madhya Pradesh
12KYEKhurai (5)  11:26-11:28-2m--1160.548439mWCRKhurai, Madhya Pradesh
13SMRRSumreriX  11:37 11:39-11:39 11:41-2m--1169.345443mWCRKhurai, Madhya Pradesh
14JRKJeruwa Khera  11:53-11:55-2m--1178.450498mWCRJeruwakhera, Madhya Pradesh
15ISHIsarwaraO  12:06-12:08-2m--1187.437487mWCRSagar, Madhya Pradesh
16NOINariaoliX  12:20-12:22-2m--1194.939485mWCRSagar, Madhya Pradesh
17SGOSaugor (2)  12:50-13:00-10m--1213.324519mWCRMP 470001Madhya pradesh, Madhya Pradesh
18MKRNMakronia  13:18-13:20-2m--1220.472527mWCRRajakhedi, Madhya Pradesh
19LDALidhora Khurd  13:26-13:28-2m--1227.650496mWCRSagar, Madhya Pradesh
20GWGirwar  13:37 13:40-13:42-5 2m--1237.664472mWCRSagar, Madhya Pradesh
21GAJGaneshGanjXO  13:55-14:00-5m--1251.439419mWCRPatharia, Madhya Pradesh
22PHAPathariaX  14:20-14:25-5m--1264.236382mWCRState Highway 14, Madhya Pradesh
23ANAAslanaXO  14:48-14:50-2m--1278.021367mWCRDamoh, Madhya Pradesh
24DMODamoh (2)  15:25-15:35-10m--1290.461365mWCRDamoh, Madhya Pradesh
25KYXKarhiya BhadeliX  15:43-15:45-2m--1298.533365mWCRGhatera, Madhya Pradesh
26BNUBandakpur  15:58-16:00-2m--1305.749352mWCRBandakpur Rd, Madhya Pradesh
27GEAGhatera  16:10 16:13-16:15-5 2m--1316.454332mWCRBandakpur Rd, Madhya Pradesh
28SAOSagoni  16:33-16:35-2m--1332.532358mWCRGhatera, Madhya Pradesh
29SYASalaia  17:09-17:11-2m--1350.752438mWCRGhatera, Madhya Pradesh
30BQQBakhleta  17:23-17:25-2m--1361.039429mWCRKatni, Madhya Pradesh
31REIRithiX  17:38-17:40-2m--1369.455427mWCRKatni, Madhya Pradesh
32HDUHardua  17:56-17:58-2m--1384.242394mWCRKatni, Madhya Pradesh
33KMZKatni Murwara  18:20-18:40-20m--1399.522385mWCRMP 483504 ?, Madhya Pradesh
34JLWJhalwara  19:09-19:11-2m--1410.370406mSECRNational Highway 78, Madhya Pradesh
35RPDRupaund  19:21-19:23-2m--1422.035417mSECRJhalwara, Madhya Pradesh
36VYKVilayatkalan RoadX  19:31-19:33-2m--1426.695425mSECRJhalwara, Madhya Pradesh
37CHDChandia Road (1)  19:41-19:43-2m11439.359406mSECRNational Highway 78, Madhya Pradesh
38LOALorha  19:52-19:54-2m--1448.255464mSECRUmaria, Madhya Pradesh
39UMRUmaria (3)  20:05-20:10-5m--1458.395469mSECRUmaria, Madhya Pradesh
40KKIKarkeliX  20:18-20:20-2m--1470.960471mSECRUmaria, Madhya Pradesh
41NRZBNowrozabad  20:30-20:32-2m--1481.062458mSECRNational Highway 78, Madhya Pradesh
42BRSBirsinghpurX  20:39-20:41-2m--1488.270461mSECRPali, Madhya Pradesh
43GGTGhunghuti  20:55-20:57-2m--1504.469522mSECRNational Highway 78, Madhya Pradesh
44BDWABandhwa ParaX  21:08-21:10-2m--1517.017474mSECRNational Highway 78, Madhya Pradesh
45SDLShahdol  21:40-21:50-10m--1525.559466mSECR, Madhya Pradesh
46SNGPSinghpur  21:56-21:58-2m--1531.474502mSECRBurhar, Madhya Pradesh
47BUHBurhar  22:10 22:09-22:12 22:11-2m--1545.065494mSECRBurhar, Madhya Pradesh
48AALAmlaiX  22:20 22:19-22:22 22:21-2m--1553.840495mSECRAnuppur, Madhya Pradesh
49APRAnuppur Junction (4)  22:40-23:05-25m--1566.477487mSECRAnuppur, Madhya Pradesh
50CLFChhulhaX  23:09-23:11-2m--1571.675488mSECRMauhari, Madhya Pradesh
51JTIJaithariX  23:18-23:20-2m--1580.380522mSECRAnuppur, Madhya Pradesh
52NIQNigaura  23:28-23:30-2m--1591.057547mSECRAnuppur, Madhya Pradesh
53VKRVenkatnagar  23:38-23:40-2m--1598.649549mSECRPendra Rd, Madhya Pradesh
54HRBHarri  23:53-23:55-2m--1609.225595mSECRVenkatnagar, Madhya Pradesh
55PNDPendra RoadX  00:15-00:25-10m--2617.676620mSECRBilaspur district, Chhattisgarh
56SBRASarbahara  00:29-00:31-2m--2622.748589mSECRBilaspur, Chhattisgarh
57KOIKhodriX  00:38 00:39-00:40 00:41-2m--2629.041558mSECRBilaspur, Chhattisgarh
58BHTKBhanwar TonkX  00:58-00:59 01:00-1 2m--2640.644455mSECRKhodri, Chhattisgarh
59KGSKhongsara  01:16 01:17-01:18 01:19-2m--2653.057378mSECRBhanwar, Chhattisgarh
60TGQTenganmada  01:26 01:28-01:28 01:30-2m--2661.574367mSECRBelgahna, Chhattisgarh
61BIGBelgahna  01:36 01:38-01:38 01:40-2m--2671.376327mSECRBilaspur, Chhattisgarh
62SLKRSalkaroad  01:45 01:46-01:47 01:48-2m--2679.061333mSECRGhutku, Chhattisgarh
63KGBKargi Road  01:54 01:56-01:56 01:58-2m--2687.119327mSECRBilaspur, Chhattisgarh
64KLTRKalmitarX  02:20 02:23-02:22 02:25-2m--2695.021300mSECRUsalapur, Chhattisgarh
65GTKGhutku  02:41 02:48-02:43 02:50-2m--2703.023288mSECRBilaspur, Chhattisgarh
66USLUslapur (3)  03:05 03:10-03:07 03:12-2m--2710.616272mSECRBilaspur, Chhattisgarh
67BSPBilaspur Junction (8)  03:45--72719.1-5271mSECRBilaspur, Chhattisgarh
68MZHMauhari new halt!!O  04:10-04:12-2m--2574.069497mSECRAmarkantak Rd, Madhya Pradesh
69DRSNDhurwasin new halt!!O  04:19-04:21-2m--2582.069490mSECRParasi, Madhya Pradesh
70HRVHarrad new halt!!O  04:27-04:29-2m--2588.960521mSECRShahdol, Madhya Pradesh
71KTMAKotma new halt!!XO  04:38-04:40-2m--2598.048529mSECRKotma, Madhya Pradesh
72BATLBaihatola new halt!!  04:53-04:55-2m--2608.316546mSECRBoridand, Madhya Pradesh
73BJRIBijuri (2) new halt!!O  05:15-05:40-25m--2613.744582mSECRShahdol, Madhya Pradesh
74BRNDBoridand Junction new halt!!  05:52-05:54-2m--2622.520530mSECRKaramghonga Marg, Madhya Pradesh
75MDGRManendragarh new halt!!O  06:15-06:25-10m--2629.627493mSECRManendragarh, Chhattisgarh
76PRDLParadol new halt!!  06:48-06:50-2m--2640.010486mSECRDistrict Koriya, Chhattisgarh
77CHRMChirimiri (1) new halt!!  08:00----2651.3-631mSECRChirimiri, Chhattisgarh
Scroll to Top
Scroll to Bottom